User: anonymous   Login
Location: Unspecified
(0.0000°N, 0.0000°E)
Time: 14:50:25
(UTC+00:00)
Language:

GOES 5 - Orbit

View from above orbital plane
View from above orbital plane
View from above satellite
View from above satellite

Ground track
Ground track

The orbit data is extracted from the following two-line orbital elements,

1 12472U 81049A   17205.27546781 -.00000305 +00000-0 +00000-0 0  9992
2 12472 014.3389 344.6710 0004675 240.9784 107.6171 01.00254943090377
Epoch (UTC): 24 July 2017 06:36:40
Eccentricity: 0.0004675
inclination: 14.3389°
perigee height: 35771 km
apogee height: 35810 km
right ascension of ascending node: 344.6710°
argument of perigee: 240.9784°
revolutions per day: 1.00254943
mean anomaly at epoch: 107.6171°
orbit number at epoch: 9037

The dashed part of the orbit path shows where the satellite is in the earth's shadow,  

DLR